Time,TemperatureF,DewpointF,PressureIn,WindDirection,WindDirectionDegrees,WindSpeedMPH,WindSpeedGustMPH,Humidity,HourlyPrecipIn,Conditions,Clouds,dailyrainin,SoftwareType,DateUTC
2013-01-25 00:03:00,22.5,7.1,30.41,SSE,147,2.0,7.0,51,0.00,,,0.00,Wunderground v.1.15,2013-01-25 05:03:00,
2013-01-25 00:04:00,22.5,7.1,30.41,South,179,2.0,7.0,51,0.00,,,0.00,Wunderground v.1.15,2013-01-25 05:04:00,
2013-01-25 00:05:00,22.5,7.1,30.40,SE,131,2.0,7.0,51,0.00,,,0.00,Wunderground v.1.15,2013-01-25 05:05:00,
2013-01-25 00:06:00,22.5,7.1,30.40,ESE,113,2.0,7.0,51,0.00,,,0.00,Wunderground v.1.15,2013-01-25 05:06:00,
2013-01-25 00:12:00,22.5,7.1,30.40,ESE,121,2.0,5.0,51,0.00,,,0.00,Wunderground v.1.15,2013-01-25 05:12:00,
2013-01-25 00:18:00,22.5,7.1,30.39,SE,130,1.0,5.0,51,0.00,,,0.00,Wunderground v.1.15,2013-01-25 05:18:00,
2013-01-25 00:24:00,22.5,7.1,30.39,ESE,115,2.0,6.0,51,0.00,,,0.00,Wunderground v.1.15,2013-01-25 05:24:00,
2013-01-25 00:30:00,22.5,7.1,30.39,East,100,2.0,3.0,51,0.00,,,0.00,Wunderground v.1.15,2013-01-25 05:30:00,
2013-01-25 00:35:00,22.5,7.1,30.39,SSE,163,1.0,3.0,51,0.00,,,0.00,Wunderground v.1.15,2013-01-25 05:35:00,
2013-01-25 00:41:00,22.4,7.0,30.37,SE,130,2.0,4.0,51,0.00,,,0.00,Wunderground v.1.15,2013-01-25 05:41:00,
2013-01-25 00:47:00,22.4,7.0,30.39,ESE,121,2.0,4.0,51,0.00,,,0.00,Wunderground v.1.15,2013-01-25 05:47:00,
2013-01-25 00:53:00,22.4,7.4,30.37,SE,136,2.0,4.0,52,0.00,,,0.00,Wunderground v.1.15,2013-01-25 05:53:00,
2013-01-25 00:58:00,22.4,7.0,30.35,ESE,111,3.0,5.0,51,0.00,,,0.00,Wunderground v.1.15,2013-01-25 05:58:00,
2013-01-25 01:04:00,22.3,7.3,30.35,South,179,3.0,7.0,52,0.00,,,0.00,Wunderground v.1.15,2013-01-25 06:04:00,
2013-01-25 01:09:00,22.3,7.3,30.35,South,189,2.0,7.0,52,0.00,,,0.00,Wunderground v.1.15,2013-01-25 06:09:00,
2013-01-25 01:14:00,22.3,7.3,30.35,ESE,111,2.0,4.0,52,0.00,,,0.00,Wunderground v.1.15,2013-01-25 06:14:00,
2013-01-25 01:20:00,22.3,7.3,30.35,South,188,2.0,3.0,52,0.00,,,0.00,Wunderground v.1.15,2013-01-25 06:20:00,
2013-01-25 01:25:00,22.4,7.4,30.36,SSE,165,1.0,3.0,52,0.00,,,0.00,Wunderground v.1.15,2013-01-25 06:25:00,
2013-01-25 01:31:00,22.4,7.4,30.36,SE,146,1.0,1.0,52,0.00,,,0.00,Wunderground v.1.15,2013-01-25 06:31:00,
2013-01-25 01:37:00,22.4,7.4,30.36,East,98,1.0,2.0,52,0.00,,,0.00,Wunderground v.1.15,2013-01-25 06:37:00,
2013-01-25 01:43:00,22.5,7.5,30.37,ESE,113,1.0,3.0,52,0.00,,,0.00,Wunderground v.1.15,2013-01-25 06:43:00,
2013-01-25 01:48:00,22.5,7.5,30.37,SSW,194,1.0,3.0,52,0.00,,,0.00,Wunderground v.1.15,2013-01-25 06:48:00,
2013-01-25 01:54:00,22.5,7.5,30.37,South,175,1.0,2.0,52,0.00,,,0.00,Wunderground v.1.15,2013-01-25 06:54:00,
2013-01-25 02:00:00,22.5,7.5,30.36,South,174,0.0,0.0,52,0.00,,,0.00,Wunderground v.1.15,2013-01-25 07:00:00,
2013-01-25 02:05:00,22.5,7.9,30.36,South,174,0.0,1.0,53,0.00,,,0.00,Wunderground v.1.15,2013-01-25 07:05:00,
2013-01-25 02:11:00,22.6,8.0,30.36,SE,129,0.0,2.0,53,0.00,,,0.00,Wunderground v.1.15,2013-01-25 07:11:00,
2013-01-25 02:17:00,22.7,8.1,30.36,SE,134,1.0,2.0,53,0.00,,,0.00,Wunderground v.1.15,2013-01-25 07:17:00,
2013-01-25 02:22:00,22.7,7.7,30.35,SE,132,1.0,2.0,52,0.00,,,0.00,Wunderground v.1.15,2013-01-25 07:22:00,
2013-01-25 02:28:00,22.7,8.1,30.33,East,101,1.0,3.0,53,0.00,,,0.00,Wunderground v.1.15,2013-01-25 07:28:00,
2013-01-25 02:34:00,22.6,8.0,30.33,ESE,104,2.0,4.0,53,0.00,,,0.00,Wunderground v.1.15,2013-01-25 07:34:00,
2013-01-25 02:40:00,22.6,8.0,30.34,SSW,196,1.0,1.0,53,0.00,,,0.00,Wunderground v.1.15,2013-01-25 07:40:00,
2013-01-25 02:45:00,22.6,8.4,30.33,ESE,117,1.0,1.0,54,0.00,,,0.00,Wunderground v.1.15,2013-01-25 07:45:00,
2013-01-25 02:51:00,22.7,8.5,30.33,SE,131,1.0,1.0,54,0.00,,,0.00,Wunderground v.1.15,2013-01-25 07:51:00,
2013-01-25 02:56:00,22.7,8.5,30.34,ESE,107,1.0,2.0,54,0.00,,,0.00,Wunderground v.1.15,2013-01-25 07:56:00,
2013-01-25 03:01:00,22.8,8.6,30.34,SE,142,1.0,1.0,54,0.00,,,0.00,Wunderground v.1.15,2013-01-25 08:01:00,
2013-01-25 03:07:00,22.8,8.6,30.33,ESE,115,1.0,3.0,54,0.00,,,0.00,Wunderground v.1.15,2013-01-25 08:07:00,
2013-01-25 03:13:00,22.8,8.6,30.33,SSE,163,1.0,2.0,54,0.00,,,0.00,Wunderground v.1.15,2013-01-25 08:13:00,
2013-01-25 03:18:00,22.9,9.1,30.33,South,184,1.0,2.0,55,0.00,,,0.00,Wunderground v.1.15,2013-01-25 08:18:00,
2013-01-25 03:24:00,23.0,9.2,30.32,SE,135,0.0,2.0,55,0.00,,,0.00,Wunderground v.1.15,2013-01-25 08:24:00,
2013-01-25 03:30:00,23.0,8.8,30.31,East,101,1.0,2.0,54,0.00,,,0.00,Wunderground v.1.15,2013-01-25 08:30:00,
2013-01-25 03:36:00,23.0,8.8,30.30,SE,124,1.0,5.0,54,0.00,,,0.00,Wunderground v.1.15,2013-01-25 08:36:00,
2013-01-25 03:42:00,22.9,9.1,30.30,ESE,113,2.0,3.0,55,0.00,,,0.00,Wunderground v.1.15,2013-01-25 08:42:00,
2013-01-25 03:48:00,22.9,9.1,30.30,SE,136,1.0,3.0,55,0.00,,,0.00,Wunderground v.1.15,2013-01-25 08:48:00,
2013-01-25 03:54:00,22.9,9.1,30.30,SE,124,1.0,3.0,55,0.00,,,0.00,Wunderground v.1.15,2013-01-25 08:54:00,
2013-01-25 04:00:00,22.9,9.1,30.31,ESE,119,1.0,2.0,55,0.00,,,0.00,Wunderground v.1.15,2013-01-25 09:00:00,
2013-01-25 04:05:00,22.9,9.1,30.30,ESE,110,1.0,3.0,55,0.00,,,0.00,Wunderground v.1.15,2013-01-25 09:05:00,
2013-01-25 04:11:00,22.9,9.5,30.30,SE,124,1.0,1.0,56,0.00,,,0.00,Wunderground v.1.15,2013-01-25 09:11:00,
2013-01-25 04:16:00,22.9,9.1,30.29,SE,124,1.0,2.0,55,0.00,,,0.00,Wunderground v.1.15,2013-01-25 09:16:00,
2013-01-25 04:22:00,22.9,9.5,30.28,ESE,109,1.0,2.0,56,0.00,,,0.00,Wunderground v.1.15,2013-01-25 09:22:00,
2013-01-25 04:28:00,22.9,9.1,30.28,SE,129,2.0,3.0,55,0.00,,,0.00,Wunderground v.1.15,2013-01-25 09:28:00,
2013-01-25 04:34:00,22.9,9.5,30.27,SE,130,2.0,2.0,56,0.00,,,0.00,Wunderground v.1.15,2013-01-25 09:34:00,
2013-01-25 04:39:00,22.9,9.5,30.27,ESE,115,2.0,5.0,56,0.00,,,0.00,Wunderground v.1.15,2013-01-25 09:39:00,
2013-01-25 04:45:00,22.9,9.5,30.26,ESE,115,2.0,3.0,56,0.00,,,0.00,Wunderground v.1.15,2013-01-25 09:45:00,
2013-01-25 04:50:00,22.9,9.5,30.25,East,93,1.0,1.0,56,0.00,,,0.00,Wunderground v.1.15,2013-01-25 09:50:00,
2013-01-25 04:56:00,22.9,9.5,30.25,SSW,211,1.0,3.0,56,0.00,,,0.00,Wunderground v.1.15,2013-01-25 09:56:00,
2013-01-25 05:02:00,22.9,9.5,30.25,ESE,105,2.0,2.0,56,0.00,,,0.00,Wunderground v.1.15,2013-01-25 10:02:00,
2013-01-25 05:07:00,22.9,9.5,30.24,SE,132,2.0,3.0,56,0.00,,,0.00,Wunderground v.1.15,2013-01-25 10:07:00,
2013-01-25 05:12:00,22.9,9.5,30.23,SSE,163,1.0,1.0,56,0.00,,,0.00,Wunderground v.1.15,2013-01-25 10:12:00,
2013-01-25 05:18:00,22.9,9.5,30.23,South,185,2.0,5.0,56,0.00,,,0.00,Wunderground v.1.15,2013-01-25 10:18:00,
2013-01-25 05:24:00,22.9,9.5,30.23,SSW,193,2.0,2.0,56,0.00,,,0.00,Wunderground v.1.15,2013-01-25 10:24:00,
2013-01-25 05:30:00,22.9,9.5,30.23,East,84,2.0,3.0,56,0.00,,,0.00,Wunderground v.1.15,2013-01-25 10:30:00,
2013-01-25 05:35:00,22.9,9.9,30.22,SE,136,2.0,5.0,57,0.00,,,0.00,Wunderground v.1.15,2013-01-25 10:35:00,
2013-01-25 05:41:00,22.9,10.3,30.21,SE,142,2.0,4.0,58,0.00,,,0.00,Wunderground v.1.15,2013-01-25 10:41:00,
2013-01-25 05:47:00,22.9,10.3,30.19,SE,133,2.0,4.0,58,0.00,,,0.00,Wunderground v.1.15,2013-01-25 10:47:00,
2013-01-25 05:52:00,22.9,10.7,30.20,SE,134,2.0,2.0,59,0.00,,,0.00,Wunderground v.1.15,2013-01-25 10:52:00,
2013-01-25 05:58:00,22.9,10.7,30.19,South,188,1.0,3.0,59,0.00,,,0.00,Wunderground v.1.15,2013-01-25 10:58:00,
2013-01-25 06:03:00,22.9,10.7,30.20,East,86,1.0,3.0,59,0.00,,,0.00,Wunderground v.1.15,2013-01-25 11:03:00,
2013-01-25 06:09:00,22.9,10.7,30.20,East,96,1.0,3.0,59,0.00,,,0.00,Wunderground v.1.15,2013-01-25 11:09:00,
2013-01-25 06:15:00,22.9,10.7,30.19,East,100,1.0,6.0,59,0.00,,,0.00,Wunderground v.1.15,2013-01-25 11:15:00,
2013-01-25 06:21:00,22.9,10.7,30.19,East,98,1.0,2.0,59,0.00,,,0.00,Wunderground v.1.15,2013-01-25 11:21:00,
2013-01-25 06:26:00,22.9,10.7,30.19,SE,130,1.0,2.0,59,0.00,,,0.00,Wunderground v.1.15,2013-01-25 11:26:00,
2013-01-25 06:32:00,22.9,10.7,30.17,ESE,109,1.0,5.0,59,0.00,,,0.00,Wunderground v.1.15,2013-01-25 11:32:00,
2013-01-25 06:38:00,22.8,11.0,30.18,SE,134,1.0,5.0,60,0.00,,,0.00,Wunderground v.1.15,2013-01-25 11:38:00,
2013-01-25 06:44:00,22.8,11.0,30.19,SSE,161,1.0,1.0,60,0.00,,,0.00,Wunderground v.1.15,2013-01-25 11:44:00,
2013-01-25 06:49:00,22.8,11.3,30.18,SSE,159,0.0,1.0,61,0.00,,,0.00,Wunderground v.1.15,2013-01-25 11:49:00,
2013-01-25 06:54:00,22.9,11.1,30.18,East,96,1.0,3.0,60,0.00,,,0.00,Wunderground v.1.15,2013-01-25 11:54:00,
2013-01-25 07:00:00,22.9,11.4,30.17,ESE,111,1.0,1.0,61,0.00,,,0.00,Wunderground v.1.15,2013-01-25 12:00:00,
2013-01-25 07:05:00,22.9,12.2,30.18,SSE,155,1.0,2.0,63,0.00,,,0.00,Wunderground v.1.15,2013-01-25 12:05:00,
2013-01-25 07:11:00,22.8,12.1,30.18,SE,137,1.0,2.0,63,0.00,,,0.00,Wunderground v.1.15,2013-01-25 12:11:00,
2013-01-25 07:17:00,22.6,12.2,30.18,SE,134,1.0,4.0,64,0.00,,,0.00,Wunderground v.1.15,2013-01-25 12:17:00,
2013-01-25 07:22:00,22.5,12.1,30.18,SE,136,1.0,1.0,64,0.00,,,0.00,Wunderground v.1.15,2013-01-25 12:22:00,
2013-01-25 07:27:00,22.6,12.9,30.18,SE,140,0.0,1.0,66,0.00,,,0.00,Wunderground v.1.15,2013-01-25 12:27:00,
2013-01-25 07:33:00,22.5,12.8,30.19,SE,144,0.0,1.0,66,0.00,,,0.00,Wunderground v.1.15,2013-01-25 12:33:00,
2013-01-25 07:39:00,22.4,12.8,30.18,East,99,1.0,2.0,66,0.00,,,0.00,Wunderground v.1.15,2013-01-25 12:39:00,
2013-01-25 07:45:00,22.4,13.4,30.18,SE,126,1.0,3.0,68,0.00,,,0.00,Wunderground v.1.15,2013-01-25 12:45:00,
2013-01-25 07:50:00,22.2,13.6,30.17,ESE,108,1.0,1.0,69,0.00,,,0.00,Wunderground v.1.15,2013-01-25 12:50:00,
2013-01-25 07:56:00,22.0,14.3,30.17,East,90,2.0,2.0,72,0.00,,,0.00,Wunderground v.1.15,2013-01-25 12:56:00,
2013-01-25 08:02:00,21.9,14.6,30.16,ESE,117,1.0,3.0,73,0.00,,,0.00,Wunderground v.1.15,2013-01-25 13:02:00,
2013-01-25 08:08:00,21.8,14.8,30.16,East,96,1.0,3.0,74,0.00,,,0.00,Wunderground v.1.15,2013-01-25 13:08:00,
2013-01-25 08:13:00,21.8,15.1,30.16,SSE,161,1.0,2.0,75,0.00,,,0.00,Wunderground v.1.15,2013-01-25 13:13:00,
2013-01-25 08:18:00,21.8,15.1,30.16,SE,126,1.0,2.0,75,0.00,,,0.00,Wunderground v.1.15,2013-01-25 13:18:00,
2013-01-25 08:23:00,21.7,15.0,30.16,ESE,117,1.0,2.0,75,0.00,,,0.00,Wunderground v.1.15,2013-01-25 13:23:00,
2013-01-25 08:29:00,21.7,15.3,30.15,ESE,103,1.0,2.0,76,0.00,,,0.00,Wunderground v.1.15,2013-01-25 13:29:00,
2013-01-25 08:34:00,21.5,15.4,30.15,ESE,119,1.0,5.0,77,0.00,,,0.00,Wunderground v.1.15,2013-01-25 13:34:00,
2013-01-25 08:39:00,21.3,15.8,30.15,ESE,109,1.0,5.0,79,0.00,,,0.00,Wunderground v.1.15,2013-01-25 13:39:00,
2013-01-25 08:45:00,21.1,15.9,30.15,SSW,204,1.0,1.0,80,0.00,,,0.00,Wunderground v.1.15,2013-01-25 13:45:00,
2013-01-25 08:50:00,21.1,16.2,30.14,ESE,113,1.0,1.0,81,0.00,,,0.00,Wunderground v.1.15,2013-01-25 13:50:00,
2013-01-25 08:56:00,20.9,16.3,30.14,SE,125,1.0,2.0,82,0.00,,,0.00,Wunderground v.1.15,2013-01-25 13:56:00,
2013-01-25 09:02:00,20.9,16.5,30.13,SE,142,0.0,1.0,83,0.00,,,0.00,Wunderground v.1.15,2013-01-25 14:02:00,
2013-01-25 09:07:00,20.9,16.8,30.13,SE,138,0.0,1.0,84,0.00,,,0.00,Wunderground v.1.15,2013-01-25 14:07:00,
2013-01-25 09:13:00,20.9,16.8,30.13,SSW,194,0.0,2.0,84,0.00,,,0.00,Wunderground v.1.15,2013-01-25 14:13:00,
2013-01-25 09:19:00,20.9,17.1,30.14,SSW,192,0.0,2.0,85,0.00,,,0.00,Wunderground v.1.15,2013-01-25 14:19:00,
2013-01-25 09:24:00,20.8,17.0,30.15,South,188,0.0,1.0,85,0.00,,,0.00,Wunderground v.1.15,2013-01-25 14:24:00,
2013-01-25 09:30:00,20.8,17.0,30.15,South,188,0.0,0.0,85,0.00,,,0.00,Wunderground v.1.15,2013-01-25 14:30:00,
2013-01-25 09:35:00,20.8,17.3,30.14,South,188,0.0,0.0,86,0.00,,,0.00,Wunderground v.1.15,2013-01-25 14:35:00,
2013-01-25 09:41:00,20.8,17.3,30.14,South,188,0.0,0.0,86,0.00,,,0.00,Wunderground v.1.15,2013-01-25 14:41:00,
2013-01-25 09:47:00,20.7,17.2,30.13,South,188,0.0,1.0,86,0.00,,,0.00,Wunderground v.1.15,2013-01-25 14:47:00,
2013-01-25 09:53:00,20.8,17.5,30.13,South,188,0.0,1.0,87,0.00,,,0.00,Wunderground v.1.15,2013-01-25 14:53:00,
2013-01-25 09:58:00,20.9,17.6,30.13,South,188,0.0,1.0,87,0.00,,,0.00,Wunderground v.1.15,2013-01-25 14:58:00,
2013-01-25 10:04:00,20.8,17.5,30.14,South,188,0.0,0.0,87,0.00,,,0.00,Wunderground v.1.15,2013-01-25 15:04:00,
2013-01-25 10:10:00,20.9,17.6,30.14,South,188,0.0,0.0,87,0.00,,,0.00,Wunderground v.1.15,2013-01-25 15:10:00,
2013-01-25 10:16:00,21.1,17.8,30.14,South,188,0.0,0.0,87,0.00,,,0.00,Wunderground v.1.15,2013-01-25 15:16:00,
2013-01-25 10:22:00,21.3,18.0,30.14,South,188,0.0,0.0,87,0.00,,,0.00,Wunderground v.1.15,2013-01-25 15:22:00,
2013-01-25 10:27:00,21.4,18.1,30.15,South,188,0.0,0.0,87,0.00,,,0.00,Wunderground v.1.15,2013-01-25 15:27:00,
2013-01-25 10:32:00,21.4,18.1,30.14,South,188,0.0,0.0,87,0.00,,,0.00,Wunderground v.1.15,2013-01-25 15:32:00,
2013-01-25 10:37:00,21.4,17.9,30.15,South,188,0.0,0.0,86,0.00,,,0.00,Wunderground v.1.15,2013-01-25 15:37:00,
2013-01-25 10:43:00,21.6,18.1,30.15,South,188,0.0,0.0,86,0.00,,,0.00,Wunderground v.1.15,2013-01-25 15:43:00,
2013-01-25 10:49:00,21.9,18.4,30.15,South,188,0.0,1.0,86,0.00,,,0.00,Wunderground v.1.15,2013-01-25 15:49:00,
2013-01-25 10:54:00,22.3,18.7,30.15,South,188,0.0,0.0,86,0.00,,,0.00,Wunderground v.1.15,2013-01-25 15:54:00,
2013-01-25 11:00:00,22.6,19.0,30.15,South,188,0.0,0.0,86,0.00,,,0.00,Wunderground v.1.15,2013-01-25 16:00:00,
2013-01-25 11:05:00,22.8,19.0,30.15,South,188,0.0,0.0,85,0.00,,,0.00,Wunderground v.1.15,2013-01-25 16:05:00,
2013-01-25 11:11:00,23.1,19.3,30.16,South,188,0.0,0.0,85,0.00,,,0.00,Wunderground v.1.15,2013-01-25 16:11:00,
2013-01-25 11:16:00,23.2,19.1,30.16,South,188,0.0,0.0,84,0.00,,,0.00,Wunderground v.1.15,2013-01-25 16:16:00,
2013-01-25 11:22:00,23.4,19.3,30.16,South,188,0.0,0.0,84,0.00,,,0.00,Wunderground v.1.15,2013-01-25 16:22:00,
2013-01-25 11:27:00,23.6,19.5,30.16,South,188,0.0,1.0,84,0.00,,,0.00,Wunderground v.1.15,2013-01-25 16:27:00,
2013-01-25 11:33:00,23.6,19.2,30.16,SW,236,0.0,1.0,83,0.00,,,0.00,Wunderground v.1.15,2013-01-25 16:33:00,
2013-01-25 11:39:00,23.8,19.4,30.16,WSW,237,0.0,1.0,83,0.00,,,0.00,Wunderground v.1.15,2013-01-25 16:39:00,
2013-01-25 11:44:00,23.9,19.5,30.15,WNW,292,0.0,2.0,83,0.00,,,0.00,Wunderground v.1.15,2013-01-25 16:44:00,
2013-01-25 11:50:00,23.8,19.4,30.12,SSE,157,1.0,1.0,83,0.00,,,0.00,Wunderground v.1.15,2013-01-25 16:50:00,
2013-01-25 11:55:00,23.9,19.5,30.12,SSE,157,0.0,1.0,83,0.00,,,0.00,Wunderground v.1.15,2013-01-25 16:55:00,
2013-01-25 12:01:00,24.0,19.6,30.13,SW,231,0.0,1.0,83,0.00,,,0.00,Wunderground v.1.15,2013-01-25 17:01:00,
2013-01-25 12:06:00,24.3,19.9,30.12,SW,231,0.0,1.0,83,0.00,,,0.00,Wunderground v.1.15,2013-01-25 17:06:00,
2013-01-25 12:12:00,24.9,20.5,30.13,SSE,160,0.0,0.0,83,0.00,,,0.00,Wunderground v.1.15,2013-01-25 17:12:00,
2013-01-25 12:18:00,25.4,20.7,30.12,SSE,160,0.0,1.0,82,0.00,,,0.00,Wunderground v.1.15,2013-01-25 17:18:00,
2013-01-25 12:24:00,25.5,20.5,30.12,South,179,0.0,0.0,81,0.00,,,0.00,Wunderground v.1.15,2013-01-25 17:24:00,
2013-01-25 12:30:00,25.7,20.7,30.12,WNW,302,1.0,1.0,81,0.00,,,0.00,Wunderground v.1.15,2013-01-25 17:30:00,
2013-01-25 12:36:00,26.0,21.0,30.11,SSE,154,0.0,1.0,81,0.00,,,0.00,Wunderground v.1.15,2013-01-25 17:36:00,
2013-01-25 12:41:00,26.2,21.2,30.11,South,186,0.0,1.0,81,0.00,,,0.00,Wunderground v.1.15,2013-01-25 17:41:00,
2013-01-25 12:47:00,26.6,21.3,30.11,South,184,1.0,3.0,80,0.00,,,0.00,Wunderground v.1.15,2013-01-25 17:47:00,
2013-01-25 12:53:00,26.8,21.5,30.11,SSW,202,1.0,1.0,80,0.00,,,0.00,Wunderground v.1.15,2013-01-25 17:53:00,
2013-01-25 12:59:00,26.8,21.2,30.11,South,189,1.0,1.0,79,0.00,,,0.00,Wunderground v.1.15,2013-01-25 17:59:00,
2013-01-25 13:05:00,26.5,20.9,30.10,West,261,1.0,1.0,79,0.00,,,0.00,Wunderground v.1.15,2013-01-25 18:05:00,
2013-01-25 13:11:00,26.7,21.4,30.10,WNW,296,0.0,0.0,80,0.00,,,0.00,Wunderground v.1.15,2013-01-25 18:11:00,
2013-01-25 13:16:00,27.2,21.8,30.10,WNW,299,0.0,0.0,80,0.00,,,0.00,Wunderground v.1.15,2013-01-25 18:16:00,
2013-01-25 13:22:00,27.6,21.9,30.09,NW,309,0.0,0.0,79,0.00,,,0.00,Wunderground v.1.15,2013-01-25 18:22:00,
2013-01-25 13:27:00,27.8,22.1,30.09,South,171,0.0,2.0,79,0.00,,,0.00,Wunderground v.1.15,2013-01-25 18:27:00,
2013-01-25 13:33:00,27.8,21.8,30.09,South,189,0.0,2.0,78,0.00,,,0.00,Wunderground v.1.15,2013-01-25 18:33:00,
2013-01-25 13:39:00,28.1,22.4,30.09,SW,225,0.0,2.0,79,0.00,,,0.00,Wunderground v.1.15,2013-01-25 18:39:00,
2013-01-25 13:44:00,28.3,22.3,30.09,West,260,0.0,2.0,78,0.00,,,0.00,Wunderground v.1.15,2013-01-25 18:44:00,
2013-01-25 13:50:00,28.8,22.8,30.08,WNW,290,0.0,0.0,78,0.00,,,0.00,Wunderground v.1.15,2013-01-25 18:50:00,
2013-01-25 13:56:00,28.9,22.3,30.08,NW,317,1.0,2.0,76,0.00,,,0.00,Wunderground v.1.15,2013-01-25 18:56:00,
2013-01-25 14:02:00,29.0,22.4,30.08,NW,317,0.0,0.0,76,0.00,,,0.00,Wunderground v.1.15,2013-01-25 19:02:00,
2013-01-25 14:07:00,29.2,22.9,30.08,SW,223,0.0,1.0,77,0.00,,,0.00,Wunderground v.1.15,2013-01-25 19:07:00,
2013-01-25 14:13:00,29.3,22.7,30.08,WSW,258,1.0,1.0,76,0.00,,,0.00,Wunderground v.1.15,2013-01-25 19:13:00,
2013-01-25 14:19:00,29.5,22.9,30.07,NW,323,1.0,2.0,76,0.00,,,0.00,Wunderground v.1.15,2013-01-25 19:19:00,
2013-01-25 14:24:00,29.5,22.6,30.07,NNW,345,1.0,1.0,75,0.00,,,0.00,Wunderground v.1.15,2013-01-25 19:24:00,
2013-01-25 14:30:00,29.6,22.6,30.07,NNW,345,0.0,0.0,75,0.00,,,0.00,Wunderground v.1.15,2013-01-25 19:30:00,
2013-01-25 14:35:00,29.8,22.8,30.07,West,275,0.0,2.0,75,0.00,,,0.00,Wunderground v.1.15,2013-01-25 19:35:00,
2013-01-25 14:41:00,30.0,23.0,30.07,NNW,332,0.0,1.0,75,0.00,,,0.00,Wunderground v.1.15,2013-01-25 19:41:00,
2013-01-25 14:47:00,30.0,22.7,30.07,WNW,302,0.0,2.0,74,0.00,,,0.00,Wunderground v.1.15,2013-01-25 19:47:00,
2013-01-25 14:53:00,30.2,23.2,30.06,WNW,302,0.0,1.0,75,0.00,,,0.01,Wunderground v.1.15,2013-01-25 19:53:00,
2013-01-25 14:58:00,30.4,23.1,30.06,WSW,254,0.0,1.0,74,0.00,,,0.01,Wunderground v.1.15,2013-01-25 19:58:00,
2013-01-25 15:03:00,30.5,23.2,30.07,NNW,341,0.0,3.0,74,0.00,,,0.01,Wunderground v.1.15,2013-01-25 20:03:00,
2013-01-25 15:09:00,30.6,23.3,30.07,West,271,1.0,3.0,74,0.00,,,0.01,Wunderground v.1.15,2013-01-25 20:09:00,
2013-01-25 15:14:00,30.7,23.4,30.07,West,261,0.0,1.0,74,0.00,,,0.01,Wunderground v.1.15,2013-01-25 20:14:00,
2013-01-25 15:19:00,30.8,23.2,30.07,West,261,0.0,1.0,73,0.00,,,0.01,Wunderground v.1.15,2013-01-25 20:19:00,
2013-01-25 15:25:00,30.8,23.2,30.07,West,275,0.0,2.0,73,0.00,,,0.01,Wunderground v.1.15,2013-01-25 20:25:00,
2013-01-25 15:30:00,30.7,23.1,30.07,West,276,1.0,1.0,73,0.00,,,0.01,Wunderground v.1.15,2013-01-25 20:30:00,
2013-01-25 15:36:00,30.7,23.4,30.07,West,272,0.0,3.0,74,0.00,,,0.02,Wunderground v.1.15,2013-01-25 20:36:00,
2013-01-25 15:42:00,30.7,23.1,30.07,NNW,340,0.0,1.0,73,0.00,,,0.02,Wunderground v.1.15,2013-01-25 20:42:00,
2013-01-25 15:47:00,30.6,23.3,30.07,NW,308,0.0,1.0,74,0.00,,,0.02,Wunderground v.1.15,2013-01-25 20:47:00,
2013-01-25 15:52:00,30.5,23.2,30.08,NW,308,0.0,0.0,74,0.00,,,0.02,Wunderground v.1.15,2013-01-25 20:52:00,
2013-01-25 15:58:00,30.5,23.5,30.08,WNW,288,0.0,1.0,75,0.00,,,0.02,Wunderground v.1.15,2013-01-25 20:58:00,
2013-01-25 16:04:00,30.5,23.2,30.07,West,265,0.0,1.0,74,0.00,,,0.02,Wunderground v.1.15,2013-01-25 21:04:00,
2013-01-25 16:10:00,30.5,23.2,30.08,West,268,0.0,0.0,74,0.00,,,0.02,Wunderground v.1.15,2013-01-25 21:10:00,
2013-01-25 16:15:00,30.5,23.2,30.08,NW,307,0.0,1.0,74,0.00,,,0.02,Wunderground v.1.15,2013-01-25 21:15:00,
2013-01-25 16:21:00,30.4,23.1,30.08,West,273,0.0,0.0,74,0.00,,,0.02,Wunderground v.1.15,2013-01-25 21:21:00,
2013-01-25 16:27:00,30.4,23.1,30.08,WNW,284,0.0,1.0,74,0.00,,,0.02,Wunderground v.1.15,2013-01-25 21:27:00,
2013-01-25 16:33:00,30.3,23.3,30.08,WNW,284,0.0,0.0,75,0.00,,,0.02,Wunderground v.1.15,2013-01-25 21:33:00,
2013-01-25 16:38:00,30.2,23.2,30.08,West,273,0.0,2.0,75,0.00,,,0.02,Wunderground v.1.15,2013-01-25 21:38:00,
2013-01-25 16:44:00,30.2,23.5,30.08,WNW,288,0.0,0.0,76,0.00,,,0.02,Wunderground v.1.15,2013-01-25 21:44:00,
2013-01-25 16:50:00,30.2,23.5,30.08,South,169,0.0,4.0,76,0.00,,,0.02,Wunderground v.1.15,2013-01-25 21:50:00,
2013-01-25 16:55:00,30.0,23.4,30.08,South,173,1.0,4.0,76,0.00,,,0.02,Wunderground v.1.15,2013-01-25 21:55:00,
2013-01-25 17:01:00,29.8,23.2,30.08,South,173,0.0,1.0,76,0.00,,,0.02,Wunderground v.1.15,2013-01-25 22:01:00,
2013-01-25 17:07:00,29.6,23.3,30.08,South,171,0.0,2.0,77,0.00,,,0.02,Wunderground v.1.15,2013-01-25 22:07:00,
2013-01-25 17:13:00,29.5,22.9,30.08,SSW,198,0.0,2.0,76,0.00,,,0.02,Wunderground v.1.15,2013-01-25 22:13:00,
2013-01-25 17:18:00,29.4,23.1,30.08,WNW,293,0.0,2.0,77,0.00,,,0.02,Wunderground v.1.15,2013-01-25 22:18:00,
2013-01-25 17:24:00,29.4,23.1,30.08,WNW,293,0.0,0.0,77,0.00,,,0.02,Wunderground v.1.15,2013-01-25 22:24:00,
2013-01-25 17:30:00,29.4,23.1,30.08,WNW,293,0.0,1.0,77,0.00,,,0.02,Wunderground v.1.15,2013-01-25 22:30:00,
2013-01-25 17:35:00,29.4,23.1,30.08,WNW,293,0.0,1.0,77,0.00,,,0.02,Wunderground v.1.15,2013-01-25 22:35:00,
2013-01-25 17:41:00,29.3,23.0,30.08,South,184,0.0,0.0,77,0.00,,,0.02,Wunderground v.1.15,2013-01-25 22:41:00,
2013-01-25 17:46:00,29.2,22.6,30.08,South,183,0.0,2.0,76,0.00,,,0.02,Wunderground v.1.15,2013-01-25 22:46:00,
2013-01-25 17:51:00,29.2,22.9,30.08,South,183,0.0,0.0,77,0.00,,,0.02,Wunderground v.1.15,2013-01-25 22:51:00,
2013-01-25 17:57:00,29.1,22.8,30.08,SSE,159,0.0,1.0,77,0.00,,,0.02,Wunderground v.1.15,2013-01-25 22:57:00,
2013-01-25 18:03:00,29.1,23.1,30.09,SSW,196,0.0,1.0,78,0.00,,,0.02,Wunderground v.1.15,2013-01-25 23:03:00,
2013-01-25 18:08:00,29.1,23.1,30.09,SSE,161,0.0,4.0,78,0.00,,,0.02,Wunderground v.1.15,2013-01-25 23:08:00,
2013-01-25 18:14:00,29.1,23.1,30.08,SSE,161,0.0,0.0,78,0.00,,,0.02,Wunderground v.1.15,2013-01-25 23:14:00,
2013-01-25 18:20:00,29.0,23.0,30.09,NW,323,0.0,0.0,78,0.00,,,0.02,Wunderground v.1.15,2013-01-25 23:20:00,
2013-01-25 18:25:00,29.0,23.0,30.09,West,261,0.0,1.0,78,0.00,,,0.02,Wunderground v.1.15,2013-01-25 23:25:00,
2013-01-25 18:31:00,29.0,23.0,30.09,South,180,0.0,1.0,78,0.00,,,0.02,Wunderground v.1.15,2013-01-25 23:31:00,
2013-01-25 18:37:00,28.9,22.9,30.09,South,185,1.0,1.0,78,0.00,,,0.02,Wunderground v.1.15,2013-01-25 23:37:00,
2013-01-25 18:43:00,28.9,22.9,30.09,South,185,0.0,0.0,78,0.00,,,0.02,Wunderground v.1.15,2013-01-25 23:43:00,
2013-01-25 18:49:00,28.8,22.8,30.09,South,191,0.0,1.0,78,0.00,,,0.02,Wunderground v.1.15,2013-01-25 23:49:00,
2013-01-25 18:55:00,28.8,22.8,30.10,SSE,163,0.0,1.0,78,0.00,,,0.02,Wunderground v.1.15,2013-01-25 23:55:00,
2013-01-25 19:01:00,28.7,22.7,30.10,South,188,0.0,1.0,78,0.00,,,0.02,Wunderground v.1.15,2013-01-26 00:01:00,
2013-01-25 19:07:00,28.5,22.5,30.10,South,188,0.0,1.0,78,0.00,,,0.02,Wunderground v.1.15,2013-01-26 00:07:00,
2013-01-25 19:12:00,28.3,22.3,30.10,South,188,0.0,0.0,78,0.00,,,0.02,Wunderground v.1.15,2013-01-26 00:12:00,
2013-01-25 19:17:00,28.2,22.5,30.11,South,183,0.0,1.0,79,0.00,,,0.02,Wunderground v.1.15,2013-01-26 00:17:00,
2013-01-25 19:23:00,28.1,22.4,30.11,South,183,0.0,1.0,79,0.00,,,0.02,Wunderground v.1.15,2013-01-26 00:23:00,
2013-01-25 19:29:00,28.0,22.3,30.10,South,178,0.0,1.0,79,0.00,,,0.02,Wunderground v.1.15,2013-01-26 00:29:00,
2013-01-25 19:34:00,27.9,22.2,30.11,South,179,0.0,1.0,79,0.00,,,0.02,Wunderground v.1.15,2013-01-26 00:34:00,
2013-01-25 19:40:00,27.7,22.0,30.11,West,277,0.0,1.0,79,0.00,,,0.02,Wunderground v.1.15,2013-01-26 00:40:00,
2013-01-25 19:45:00,27.5,22.1,30.11,South,186,0.0,2.0,80,0.00,,,0.02,Wunderground v.1.15,2013-01-26 00:45:00,
2013-01-25 19:51:00,27.3,21.9,30.11,South,182,0.0,0.0,80,0.00,,,0.02,Wunderground v.1.15,2013-01-26 00:51:00,
2013-01-25 19:56:00,27.2,21.8,30.11,SSW,196,1.0,2.0,80,0.00,,,0.02,Wunderground v.1.15,2013-01-26 00:56:00,
2013-01-25 20:02:00,27.0,21.9,30.11,South,186,1.0,1.0,81,0.00,,,0.02,Wunderground v.1.15,2013-01-26 01:02:00,
2013-01-25 20:08:00,26.8,21.8,30.11,South,186,0.0,1.0,81,0.00,,,0.02,Wunderground v.1.15,2013-01-26 01:08:00,
2013-01-25 20:14:00,26.7,21.7,30.11,SSW,193,1.0,2.0,81,0.00,,,0.02,Wunderground v.1.15,2013-01-26 01:14:00,
2013-01-25 20:20:00,26.5,21.5,30.11,SSW,198,1.0,1.0,81,0.00,,,0.02,Wunderground v.1.15,2013-01-26 01:20:00,
2013-01-25 20:25:00,26.4,21.7,30.11,SSW,198,0.0,1.0,82,0.00,,,0.02,Wunderground v.1.15,2013-01-26 01:25:00,
2013-01-25 20:31:00,26.2,21.5,30.12,SSW,201,0.0,0.0,82,0.00,,,0.02,Wunderground v.1.15,2013-01-26 01:31:00,
2013-01-25 20:37:00,26.0,21.5,30.12,SSW,201,0.0,1.0,83,0.00,,,0.02,Wunderground v.1.15,2013-01-26 01:37:00,
2013-01-25 20:43:00,25.9,21.4,30.12,South,175,0.0,0.0,83,0.00,,,0.02,Wunderground v.1.15,2013-01-26 01:43:00,
2013-01-25 20:48:00,25.8,21.3,30.12,South,180,0.0,1.0,83,0.00,,,0.02,Wunderground v.1.15,2013-01-26 01:48:00,
2013-01-25 20:54:00,25.6,21.4,30.12,South,180,0.0,0.0,84,0.00,,,0.02,Wunderground v.1.15,2013-01-26 01:54:00,
2013-01-25 20:59:00,25.5,21.3,30.12,South,180,0.0,2.0,84,0.00,,,0.02,Wunderground v.1.15,2013-01-26 01:59:00,
2013-01-25 21:05:00,25.4,21.5,30.12,South,180,0.0,0.0,85,0.00,,,0.02,Wunderground v.1.15,2013-01-26 02:05:00,
2013-01-25 21:11:00,25.2,21.3,30.12,South,180,0.0,0.0,85,0.00,,,0.02,Wunderground v.1.15,2013-01-26 02:11:00,
2013-01-25 21:16:00,25.1,21.2,30.12,South,180,0.0,0.0,85,0.00,,,0.02,Wunderground v.1.15,2013-01-26 02:16:00,
2013-01-25 21:22:00,24.9,21.0,30.12,South,180,0.0,1.0,85,0.00,,,0.02,Wunderground v.1.15,2013-01-26 02:22:00,
2013-01-25 21:27:00,24.8,21.2,30.12,South,179,0.0,1.0,86,0.00,,,0.02,Wunderground v.1.15,2013-01-26 02:27:00,
2013-01-25 21:33:00,24.7,21.1,30.12,South,180,0.0,0.0,86,0.00,,,0.02,Wunderground v.1.15,2013-01-26 02:33:00,
2013-01-25 21:39:00,24.6,21.0,30.12,South,179,0.0,0.0,86,0.00,,,0.02,Wunderground v.1.15,2013-01-26 02:39:00,
2013-01-25 21:44:00,24.5,20.9,30.12,South,179,0.0,0.0,86,0.00,,,0.02,Wunderground v.1.15,2013-01-26 02:44:00,
2013-01-25 21:50:00,24.4,21.1,30.12,South,178,0.0,0.0,87,0.00,,,0.02,Wunderground v.1.15,2013-01-26 02:50:00,
2013-01-25 21:56:00,24.4,21.1,30.12,South,178,0.0,1.0,87,0.00,,,0.02,Wunderground v.1.15,2013-01-26 02:56:00,
2013-01-25 22:02:00,24.3,21.0,30.12,SSW,194,0.0,1.0,87,0.00,,,0.02,Wunderground v.1.15,2013-01-26 03:02:00,
2013-01-25 22:07:00,24.3,21.0,30.13,SSW,194,0.0,1.0,87,0.00,,,0.02,Wunderground v.1.15,2013-01-26 03:07:00,
2013-01-25 22:13:00,24.3,21.0,30.12,South,169,0.0,3.0,87,0.00,,,0.02,Wunderground v.1.15,2013-01-26 03:13:00,
2013-01-25 22:18:00,24.3,21.0,30.12,South,184,1.0,3.0,87,0.00,,,0.02,Wunderground v.1.15,2013-01-26 03:18:00,
2013-01-25 22:24:00,24.2,21.2,30.12,South,184,1.0,1.0,88,0.00,,,0.02,Wunderground v.1.15,2013-01-26 03:24:00,
2013-01-25 22:30:00,24.2,21.2,30.12,South,184,1.0,2.0,88,0.00,,,0.02,Wunderground v.1.15,2013-01-26 03:30:00,
2013-01-25 22:35:00,24.2,21.2,30.12,SSW,195,0.0,2.0,88,0.00,,,0.02,Wunderground v.1.15,2013-01-26 03:35:00,
2013-01-25 22:40:00,24.1,21.1,30.12,South,191,0.0,1.0,88,0.00,,,0.02,Wunderground v.1.15,2013-01-26 03:40:00,
2013-01-25 22:46:00,24.0,21.0,30.12,South,190,0.0,2.0,88,0.00,,,0.02,Wunderground v.1.15,2013-01-26 03:46:00,
2013-01-25 22:52:00,24.0,21.0,30.12,SSW,210,0.0,0.0,88,0.00,,,0.02,Wunderground v.1.15,2013-01-26 03:52:00,
2013-01-25 22:57:00,23.9,20.9,30.12,South,189,1.0,3.0,88,0.00,,,0.02,Wunderground v.1.15,2013-01-26 03:57:00,
2013-01-25 23:03:00,23.9,20.9,30.12,South,190,1.0,3.0,88,0.00,,,0.02,Wunderground v.1.15,2013-01-26 04:03:00,
2013-01-25 23:08:00,23.9,20.9,30.12,South,188,1.0,3.0,88,0.00,,,0.02,Wunderground v.1.15,2013-01-26 04:08:00,
2013-01-25 23:14:00,23.9,20.9,30.12,SSW,194,0.0,1.0,88,0.00,,,0.02,Wunderground v.1.15,2013-01-26 04:14:00,
2013-01-25 23:20:00,23.8,20.8,30.12,SSW,199,0.0,0.0,88,0.00,,,0.02,Wunderground v.1.15,2013-01-26 04:20:00,
2013-01-25 23:26:00,23.8,20.8,30.13,South,191,1.0,2.0,88,0.00,,,0.02,Wunderground v.1.15,2013-01-26 04:26:00,
2013-01-25 23:31:00,23.8,20.8,30.13,SSW,192,1.0,1.0,88,0.00,,,0.02,Wunderground v.1.15,2013-01-26 04:31:00,
2013-01-25 23:36:00,23.8,20.8,30.13,SSE,161,1.0,1.0,88,0.00,,,0.02,Wunderground v.1.15,2013-01-26 04:36:00,
2013-01-25 23:42:00,23.7,20.7,30.13,South,188,1.0,1.0,88,0.00,,,0.02,Wunderground v.1.15,2013-01-26 04:42:00,
2013-01-25 23:48:00,23.6,20.6,30.13,South,188,1.0,2.0,88,0.00,,,0.02,Wunderground v.1.15,2013-01-26 04:48:00,
2013-01-25 23:54:00,23.6,20.6,30.14,SSW,196,1.0,1.0,88,0.00,,,0.02,Wunderground v.1.15,2013-01-26 04:54:00,
2013-01-25 23:59:00,23.5,20.5,30.14,SSW,194,1.0,1.0,88,0.00,,,0.02,Wunderground v.1.15,2013-01-26 04:59:00,